Content
SEND FEEDBACK

Daily
Averages
Monthly
Summary
United States of America

SOLEDAD, CALIFORNIA


Home > North America > United States > California
Elevation: 200 feet     Latitude: 36 26N     Longitude: 121 19W

WEATHER
 
SELECT A DAY
Number of Records: 203,668;   Date Range: 1/1/95 - 11/27/14
 
SHARE

PRINT THIS DATA

[ ← Previous Day ]
WEATHER ALMANAC - FEBRUARY 28, 2013
[ Next Day → ]
[ °C ]   °F
Weather ElementAverageHighLow
Temperature50.7 °F66.9 °F (12:53 pm)37.4 °F (5:28 am)
Dewpoint42.6 °F48.9 °F (3:53 pm)35.6 °F (5:28 am)
Humidity75.8 %93 % (5:28 am)47 % (11:53 am)
Barometer30.43 in30.48 in (8:53 am)30.40 in (5:41 am)
Wind Speed4.2 mph11.5 mph (1:53 pm)
Wind Gust21.9 mph (2:53 pm)
Weather ElementAverage
Visibility9.6 mi
Wind DirectionESE (128.8 °)

Weather ElementTotal
Precipitation---
Heating Degree Days12.9 (Base 65)
Growing Degree Days2.2 (Base 50)
Averaged from 24 records on February 28, 2013
WEATHER CONDITIONS BREAKOUT
WIND DIRECTION BREAKOUT
WEATHER BY HOUR - FEBRUARY 28, 2013
[ °C ]   °F
Local TimeTemperatureDewpointHumidityBarometerVisibilityWind DirectionWind SpeedGust SpeedPrecipitationEventsConditions
1:53 AM41.0 °F37.0 °F86 %30.41 in10.0 miSE (130°)3.5 mphClear
2:53 AM43.0 °F37.9 °F82 %30.41 in10.0 miCalmClear
3:53 AM42.1 °F37.0 °F82 %30.41 in10.0 miCalmClear
4:53 AM39.9 °F36.0 °F86 %30.42 in9.0 miCalmClear
5:28 AM37.4 °F35.6 °F93 %30.41 in10.0 miCalmPartly Cloudy
5:41 AM37.4 °F35.6 °F93 %30.40 in10.0 miCalmMostly Cloudy
6:28 AM39.2 °F35.6 °F87 %30.41 in9.0 miEast (100°)3.5 mphScattered Clouds
6:53 AM39.9 °F36.0 °F86 %30.45 in9.0 miESE (120°)5.8 mphClear
7:53 AM43.0 °F37.9 °F82 %30.46 in9.0 miESE (120°)4.6 mphClear
8:53 AM48.0 °F39.0 °F71 %30.48 in10.0 miESE (120°)3.5 mphClear
9:53 AM54.0 °F42.1 °F64 %30.48 in10.0 miCalmClear
10:53 AM60.1 °F44.1 °F55 %30.47 in10.0 miVariable3.5 mphClear
11:53 AM66.0 °F45.0 °F47 %30.45 in10.0 miWest (270°)9.2 mphClear
12:53 PM66.9 °F46.0 °F47 %30.42 in10.0 miWest (280°)10.4 mphClear
1:53 PM66.0 °F46.0 °F48 %30.40 in10.0 miWest (270°)11.5 mphClear
2:53 PM60.1 °F48.0 °F64 %30.42 in10.0 miWest (260°)11.5 mph21.9 mphClear
3:53 PM61.0 °F48.9 °F64 %30.41 in10.0 miWest (270°)9.2 mph18.4 mphClear
4:53 PM59.0 °F48.9 °F69 %30.41 in10.0 miWest (270°)9.2 mphClear
5:53 PM57.0 °F48.9 °F74 %30.42 in10.0 miWest (280°)5.8 mphClear
6:53 PM55.0 °F48.0 °F77 %30.42 in10.0 miNW (320°)6.9 mphClear
8:53 PM52.0 °F48.0 °F86 %30.46 in10.0 miWest (280°)3.5 mphClear
9:53 PM51.1 °F48.0 °F89 %30.46 in10.0 miCalmClear
10:53 PM48.9 °F46.9 °F93 %30.46 in9.0 miCalmClear
11:48 PM48.2 °F46.4 °F93 %30.43 in6.0 miCalmScattered Clouds
Hourly data recorded from KSNS, located miles away from Soledad, California







STORIES FROM OUR PARTNERS